| time (UTC) | temp F | wind direction | speed MPH | gust MPH | rain 1hr in | rain 24hr in | rain mn in | humidity % | barometer mb |
| 20260505022003 | 75 | 105 | 2.0 | 7.0 | 0.00 | 0.03 | 0.02 | 72 | 1013.8 |
| 20260505021503 | 76 | 102 | 2.0 | 7.0 | 0.00 | 0.03 | 0.02 | 72 | 1013.9 |
| 20260505021002 | 76 | 89 | 2.0 | 7.0 | 0.00 | 0.03 | 0.02 | 72 | 1013.9 |
| 20260505020502 | 76 | 84 | 3.0 | 7.0 | 0.00 | 0.03 | 0.02 | 71 | 1013.9 |
| 20260505020002 | 76 | 86 | 3.0 | 7.0 | 0.00 | 0.03 | 0.02 | 72 | 1013.9 |
| 20260505015502 | 76 | 87 | 2.0 | 6.0 | 0.00 | 0.03 | 0.02 | 72 | 1013.8 |
| 20260505015003 | 76 | 101 | 3.0 | 11.0 | 0.00 | 0.03 | 0.02 | 71 | 1013.6 |
| 20260505014502 | 76 | 102 | 3.0 | 11.0 | 0.00 | 0.03 | 0.02 | 71 | 1013.6 |
| 20260505014002 | 76 | 92 | 3.0 | 6.0 | 0.00 | 0.03 | 0.02 | 71 | 1013.6 |
| 20260505013502 | 76 | 95 | 3.0 | 9.0 | 0.00 | 0.03 | 0.02 | 71 | 1013.5 |
| 20260505013002 | 76 | 94 | 3.0 | 9.0 | 0.00 | 0.03 | 0.02 | 71 | 1013.3 |
| 20260505012503 | 76 | 96 | 3.0 | 9.0 | 0.00 | 0.03 | 0.02 | 71 | 1013.2 |
| 20260505012003 | 77 | 108 | 3.0 | 9.0 | 0.00 | 0.03 | 0.02 | 71 | 1013.3 |
| 20260505011503 | 77 | 108 | 3.0 | 9.0 | 0.00 | 0.03 | 0.02 | 71 | 1013.3 |
| 20260505011003 | 77 | 96 | 3.0 | 9.0 | 0.00 | 0.03 | 0.02 | 71 | 1013.2 |
| 20260505010523 | 77 | 91 | 3.0 | 7.0 | 0.00 | 0.03 | 0.02 | 71 | 1013.2 |
| 20260505010024 | 77 | 91 | 3.0 | 7.0 | 0.00 | 0.03 | 0.02 | 70 | 1013.2 |
| 20260505005502 | 77 | 93 | 3.0 | 9.0 | 0.00 | 0.03 | 0.02 | 70 | 1013.1 |
| 20260505005002 | 78 | 93 | 3.0 | 9.0 | 0.00 | 0.03 | 0.02 | 70 | 1012.9 |
| 20260505004523 | 78 | 92 | 4.0 | 10.0 | 0.00 | 0.03 | 0.02 | 70 | 1013.0 |
| 20260505004023 | 78 | 93 | 5.0 | 13.0 | 0.00 | 0.03 | 0.02 | 69 | 1012.7 |
| 20260505003502 | 78 | 86 | 4.0 | 13.0 | 0.00 | 0.03 | 0.02 | 69 | 1012.8 |
| 20260505003003 | 78 | 80 | 4.0 | 12.0 | 0.00 | 0.03 | 0.02 | 69 | 1012.7 |
| 20260505002502 | 79 | 83 | 3.0 | 7.0 | 0.00 | 0.03 | 0.02 | 69 | 1012.7 |
| 20260505002003 | 79 | 88 | 3.0 | 7.0 | 0.00 | 0.03 | 0.02 | 68 | 1012.7 |
| 20260505001502 | 79 | 84 | 3.0 | 7.0 | 0.00 | 0.03 | 0.02 | 68 | 1012.5 |
| 20260505001002 | 79 | 90 | 4.0 | 10.0 | 0.00 | 0.03 | 0.02 | 68 | 1012.3 |
| 20260505000502 | 79 | 95 | 3.0 | 10.0 | 0.00 | 0.03 | 0.02 | 67 | 1012.2 |
| 20260505000023 | 80 | 87 | 3.0 | 11.0 | 0.00 | 0.03 | 0.02 | 67 | 1012.2 |
| 20260504235502 | 80 | 86 | 4.0 | 11.0 | 0.00 | 0.03 | 0.02 | 66 | 1012.2 |
| 20260504235002 | 80 | 88 | 5.0 | 15.0 | 0.00 | 0.03 | 0.02 | 66 | 1012.2 |
| 20260504234502 | 80 | 95 | 4.0 | 15.0 | 0.00 | 0.03 | 0.02 | 65 | 1012.2 |
| 20260504234002 | 81 | 98 | 4.0 | 11.0 | 0.00 | 0.03 | 0.02 | 64 | 1012.0 |
| 20260504233524 | 81 | 93 | 4.0 | 11.0 | 0.00 | 0.03 | 0.02 | 64 | 1011.9 |
| 20260504233003 | 82 | 91 | 4.0 | 9.0 | 0.00 | 0.03 | 0.02 | 63 | 1011.8 |
| 20260504232503 | 82 | 88 | 4.0 | 10.0 | 0.00 | 0.03 | 0.02 | 63 | 1011.8 |
| 20260504232003 | 82 | 87 | 4.0 | 10.0 | 0.00 | 0.03 | 0.02 | 62 | 1011.7 |
| 20260504231502 | 82 | 88 | 3.0 | 8.0 | 0.00 | 0.03 | 0.02 | 62 | 1011.7 |
| 20260504231003 | 82 | 87 | 3.0 | 8.0 | 0.00 | 0.03 | 0.02 | 61 | 1011.7 |
| 20260504230502 | 83 | 84 | 3.0 | 7.0 | 0.00 | 0.03 | 0.02 | 61 | 1011.6 |
| 20260504230002 | 83 | 86 | 3.0 | 7.0 | 0.00 | 0.03 | 0.02 | 61 | 1011.5 |
| 20260504225523 | 83 | 84 | 3.0 | 8.0 | 0.00 | 0.03 | 0.02 | 61 | 1011.5 |
| 20260504225002 | 83 | 80 | 4.0 | 8.0 | 0.00 | 0.03 | 0.02 | 60 | 1011.4 |
| 20260504224502 | 83 | 82 | 3.0 | 7.0 | 0.00 | 0.03 | 0.02 | 59 | 1011.5 |
| 20260504224002 | 84 | 82 | 4.0 | 11.0 | 0.00 | 0.03 | 0.02 | 59 | 1011.6 |
| 20260504223502 | 84 | 83 | 3.0 | 11.0 | 0.00 | 0.03 | 0.02 | 58 | 1011.6 |
| 20260504223024 | 84 | 81 | 2.0 | 7.0 | 0.00 | 0.03 | 0.02 | 57 | 1011.6 |
| 20260504222503 | 84 | 103 | 2.0 | 6.0 | 0.00 | 0.04 | 0.02 | 55 | 1011.6 |
| 20260504222023 | 84 | 110 | 2.0 | 6.0 | 0.00 | 0.04 | 0.02 | 55 | 1011.6 |
| 20260504221502 | 84 | 95 | 3.0 | 9.0 | 0.00 | 0.04 | 0.02 | 54 | 1011.6 |
| 20260504221002 | 84 | 94 | 3.0 | 9.0 | 0.00 | 0.04 | 0.02 | 55 | 1011.6 |
| 20260504220502 | 84 | 86 | 3.0 | 7.0 | 0.00 | 0.04 | 0.02 | 55 | 1011.6 |
| 20260504220002 | 85 | 81 | 4.0 | 9.0 | 0.00 | 0.04 | 0.02 | 55 | 1011.6 |
| 20260504215503 | 85 | 73 | 4.0 | 12.0 | 0.00 | 0.04 | 0.02 | 55 | 1011.7 |
| 20260504215023 | 86 | 72 | 4.0 | 12.0 | 0.00 | 0.04 | 0.02 | 55 | 1011.6 |
| 20260504214502 | 87 | 63 | 4.0 | 10.0 | 0.00 | 0.04 | 0.02 | 55 | 1011.5 |
| 20260504214003 | 86 | 59 | 4.0 | 10.0 | 0.00 | 0.04 | 0.02 | 55 | 1011.5 |
| 20260504213523 | 87 | 71 | 3.0 | 9.0 | 0.00 | 0.04 | 0.02 | 55 | 1011.5 |
| 20260504213002 | 85 | 80 | 3.0 | 6.0 | 0.00 | 0.04 | 0.02 | 56 | 1011.6 |
| 20260504212502 | 85 | 93 | 3.0 | 10.0 | 0.00 | 0.04 | 0.02 | 54 | 1011.6 |
| 20260504212003 | 86 | 95 | 3.0 | 10.0 | 0.00 | 0.04 | 0.02 | 53 | 1011.6 |
| 20260504211523 | 86 | 92 | 4.0 | 10.0 | 0.00 | 0.04 | 0.02 | 51 | 1011.7 |
| 20260504211002 | 87 | 87 | 3.0 | 10.0 | 0.00 | 0.04 | 0.02 | 51 | 1011.6 |
| 20260504210502 | 88 | 75 | 3.0 | 7.0 | 0.00 | 0.04 | 0.02 | 49 | 1011.6 |
| 20260504210003 | 88 | 81 | 3.0 | 7.0 | 0.00 | 0.04 | 0.02 | 48 | 1011.7 |
| 20260504205524 | 87 | 91 | 4.0 | 10.0 | 0.00 | 0.04 | 0.02 | 49 | 1011.9 |
| 20260504205003 | 88 | 84 | 3.0 | 10.0 | 0.00 | 0.04 | 0.02 | 48 | 1011.9 |
| 20260504204502 | 87 | 72 | 3.0 | 6.0 | 0.00 | 0.04 | 0.02 | 52 | 1011.9 |
| 20260504204003 | 86 | 76 | 3.0 | 6.0 | 0.00 | 0.04 | 0.02 | 53 | 1011.9 |
| 20260504203503 | 86 | 79 | 3.0 | 9.0 | 0.00 | 0.04 | 0.02 | 53 | 1011.9 |
| 20260504203024 | 86 | 80 | 4.0 | 9.0 | 0.00 | 0.04 | 0.02 | 52 | 1011.9 |
| 20260504202502 | 87 | 84 | 3.0 | 9.0 | 0.00 | 0.04 | 0.02 | 49 | 1011.9 |
| 20260504202002 | 88 | 94 | 2.0 | 7.0 | 0.00 | 0.04 | 0.02 | 50 | 1012.0 |
| 20260504201502 | 87 | 77 | 2.0 | 7.0 | 0.00 | 0.04 | 0.02 | 49 | 1012.1 |
| 20260504201003 | 87 | 80 | 3.0 | 7.0 | 0.00 | 0.04 | 0.02 | 49 | 1012.2 |
| 20260504200503 | 89 | 89 | 3.0 | 7.0 | 0.00 | 0.04 | 0.02 | 48 | 1012.2 |
| 20260504200002 | 88 | 84 | 3.0 | 10.0 | 0.00 | 0.05 | 0.02 | 50 | 1012.2 |
| 20260504195502 | 87 | 86 | 3.0 | 10.0 | 0.00 | 0.05 | 0.02 | 50 | 1012.2 |
| 20260504195002 | 87 | 75 | 4.0 | 10.0 | 0.00 | 0.05 | 0.02 | 51 | 1012.3 |
| 20260504194503 | 88 | 69 | 4.0 | 8.0 | 0.00 | 0.05 | 0.02 | 49 | 1012.4 |
| 20260504194002 | 87 | 69 | 4.0 | 10.0 | 0.00 | 0.05 | 0.02 | 52 | 1012.4 |
| 20260504193503 | 88 | 79 | 3.0 | 10.0 | 0.00 | 0.05 | 0.02 | 50 | 1012.6 |
| 20260504193002 | 88 | 79 | 5.0 | 11.0 | 0.00 | 0.05 | 0.02 | 50 | 1012.6 |
| 20260504192503 | 86 | 72 | 5.0 | 13.0 | 0.00 | 0.05 | 0.02 | 52 | 1012.6 |
| 20260504192002 | 88 | 72 | 3.0 | 13.0 | 0.00 | 0.05 | 0.02 | 51 | 1012.6 |
| 20260504191503 | 88 | 76 | 4.0 | 10.0 | 0.00 | 0.05 | 0.02 | 51 | 1012.7 |
| 20260504191003 | 86 | 70 | 5.0 | 13.0 | 0.00 | 0.05 | 0.02 | 51 | 1012.8 |
| 20260504190503 | 87 | 71 | 5.0 | 13.0 | 0.00 | 0.05 | 0.02 | 51 | 1012.9 |
| 20260504190003 | 89 | 91 | 4.0 | 10.0 | 0.00 | 0.05 | 0.02 | 50 | 1013.0 |
| 20260504185503 | 88 | 97 | 3.0 | 10.0 | 0.00 | 0.05 | 0.02 | 51 | 1013.2 |
| 20260504185023 | 88 | 75 | 4.0 | 12.0 | 0.00 | 0.05 | 0.02 | 50 | 1013.2 |
| 20260504184502 | 87 | 61 | 6.0 | 13.0 | 0.00 | 0.05 | 0.02 | 51 | 1013.3 |
| 20260504184002 | 86 | 72 | 5.0 | 13.0 | 0.00 | 0.05 | 0.02 | 51 | 1013.3 |
| 20260504183503 | 89 | 112 | 3.0 | 10.0 | 0.01 | 0.05 | 0.02 | 50 | 1013.4 |
| 20260504183003 | 87 | 120 | 4.0 | 11.0 | 0.01 | 0.05 | 0.02 | 51 | 1013.4 |
| 20260504182502 | 87 | 99 | 4.0 | 11.0 | 0.01 | 0.05 | 0.02 | 49 | 1013.7 |
| 20260504182002 | 87 | 90 | 3.0 | 10.0 | 0.01 | 0.05 | 0.02 | 53 | 1013.7 |
| 20260504181502 | 86 | 86 | 4.0 | 11.0 | 0.01 | 0.05 | 0.02 | 53 | 1013.9 |
| 20260504181002 | 86 | 81 | 4.0 | 11.0 | 0.01 | 0.05 | 0.02 | 53 | 1014.0 |
| 20260504180502 | 86 | 81 | 4.0 | 11.0 | 0.01 | 0.05 | 0.02 | 52 | 1013.9 |
| 20260504180003 | 86 | 74 | 4.0 | 11.0 | 0.01 | 0.05 | 0.02 | 53 | 1014.0 |
| 20260504175502 | 86 | 70 | 4.0 | 12.0 | 0.01 | 0.05 | 0.02 | 53 | 1014.1 |
| 20260504175003 | 86 | 77 | 5.0 | 12.0 | 0.01 | 0.05 | 0.02 | 54 | 1014.1 |
| 20260504174502 | 85 | 78 | 5.0 | 11.0 | 0.01 | 0.05 | 0.02 | 54 | 1014.3 |
| 20260504174003 | 85 | 72 | 4.0 | 12.0 | 0.01 | 0.05 | 0.02 | 53 | 1014.3 |
| 20260504173502 | 85 | 75 | 3.0 | 12.0 | 0.00 | 0.04 | 0.01 | 53 | 1014.3 |
| 20260504173002 | 86 | 81 | 3.0 | 15.0 | 0.00 | 0.05 | 0.01 | 54 | 1014.3 |
| 20260504172502 | 85 | 90 | 5.0 | 15.0 | 0.00 | 0.05 | 0.01 | 54 | 1014.3 |
| 20260504172003 | 86 | 85 | 5.0 | 15.0 | 0.00 | 0.05 | 0.01 | 53 | 1014.3 |
| 20260504171502 | 86 | 62 | 4.0 | 15.0 | 0.00 | 0.05 | 0.01 | 53 | 1014.4 |
| 20260504171024 | 85 | 62 | 5.0 | 14.0 | 0.00 | 0.05 | 0.01 | 55 | 1014.4 |
| 20260504170504 | 85 | 65 | 6.0 | 14.0 | 0.00 | 0.05 | 0.01 | 54 | 1014.7 |
| 20260504151002 | 82 | 64 | 5.0 | 15.0 | 0.00 | 0.06 | 0.01 | 59 | 1015.3 |
| 20260504150502 | 81 | 62 | 6.0 | 13.0 | 0.00 | 0.06 | 0.01 | 61 | 1015.4 |
| 20260504141002 | 78 | 67 | 5.0 | 13.0 | 0.00 | 0.06 | 0.01 | 67 | 1015.2 |
| 20260504140502 | 78 | 64 | 6.0 | 13.0 | 0.00 | 0.06 | 0.01 | 68 | 1015.1 |
| 20260504130502 | 73 | 62 | 5.0 | 11.0 | 0.00 | 0.06 | 0.01 | 74 | 1014.8 |
| 20260504110503 | 66 | 64 | 2.0 | 5.0 | 0.00 | 0.08 | 0.01 | 83 | 1014.3 |
| 20260504100502 | 66 | 58 | 3.0 | 8.0 | 0.00 | 0.08 | 0.01 | 83 | 1013.7 |
| 20260504082002 | 66 | 58 | 2.0 | 9.0 | 0.01 | 0.09 | 0.01 | 85 | 1013.7 |
| 20260504081502 | 66 | 57 | 2.0 | 9.0 | 0.01 | 0.09 | 0.01 | 85 | 1013.5 |
| 20260504081002 | 67 | 57 | 2.0 | 7.0 | 0.01 | 0.09 | 0.01 | 85 | 1013.7 |
| 20260504080503 | 67 | 59 | 3.0 | 7.0 | 0.01 | 0.09 | 0.01 | 85 | 1013.7 |
| 20260504050503 | 68 | 53 | 1.0 | 5.0 | 0.00 | 0.11 | 0.00 | 84 | 1015.2 |
| 20260504050002 | 68 | 49 | 1.0 | 5.0 | 0.00 | 0.11 | 0.00 | 84 | 1014.9 |
| 20260504045523 | 68 | 46 | 1.0 | 3.0 | 0.00 | 0.11 | 0.00 | 84 | 1014.8 |
| 20260504045002 | 68 | 46 | 1.0 | 3.0 | 0.00 | 0.11 | 0.00 | 84 | 1014.9 |
| 20260504044504 | 68 | 46 | 1.0 | 3.0 | 0.00 | 0.11 | 0.00 | 84 | 1015.2 |
| 20260504044003 | 69 | 46 | 1.0 | 3.0 | 0.00 | 0.11 | 0.00 | 83 | 1015.3 |
| 20260504043502 | 69 | 46 | 1.0 | 3.0 | 0.00 | 0.11 | 0.00 | 83 | 1015.3 |
| 20260504043024 | 69 | 46 | 1.0 | 3.0 | 0.00 | 0.11 | 0.00 | 83 | 1015.3 |
| 20260504042503 | 69 | 46 | 1.0 | 2.0 | 0.00 | 0.11 | 0.00 | 83 | 1015.3 |
| 20260504042002 | 69 | 46 | 1.0 | 2.0 | 0.00 | 0.12 | 0.00 | 83 | 1015.3 |
| 20260504041502 | 69 | 46 | 1.0 | 3.0 | 0.00 | 0.12 | 0.00 | 83 | 1015.3 |
| 20260504041023 | 70 | 53 | 1.0 | 4.0 | 0.00 | 0.12 | 0.00 | 83 | 1015.3 |
| 20260504040503 | 70 | 61 | 1.0 | 4.0 | 0.00 | 0.12 | 0.00 | 83 | 1015.3 |
| 20260504040003 | 70 | 63 | 1.0 | 3.0 | 0.00 | 0.12 | 0.00 | 82 | 1015.4 |
| 20260504035502 | 70 | 58 | 2.0 | 5.0 | 0.00 | 0.12 | 0.12 | 82 | 1015.3 |
| 20260504035002 | 70 | 58 | 1.0 | 5.0 | 0.00 | 0.12 | 0.12 | 82 | 1015.3 |
| 20260504034502 | 70 | 68 | 1.0 | 3.0 | 0.00 | 0.12 | 0.12 | 82 | 1015.3 |
| 20260504034023 | 70 | 80 | 1.0 | 3.0 | 0.00 | 0.12 | 0.12 | 82 | 1015.3 |
| 20260504033502 | 70 | 100 | 0.0 | 2.0 | 0.00 | 0.12 | 0.12 | 82 | 1015.4 |
| 20260504033003 | 71 | 95 | 0.0 | 3.0 | 0.01 | 0.12 | 0.12 | 82 | 1015.5 |
| 20260504032503 | 71 | 88 | 0.0 | 3.0 | 0.01 | 0.13 | 0.12 | 81 | 1015.5 |
| 20260504032003 | 71 | 92 | 0.0 | 3.0 | 0.01 | 0.13 | 0.12 | 81 | 1015.5 |
| 20260504031502 | 71 | 92 | 1.0 | 4.0 | 0.01 | 0.13 | 0.12 | 81 | 1015.5 |
| 20260504031002 | 71 | 90 | 1.0 | 4.0 | 0.01 | 0.13 | 0.12 | 81 | 1015.4 |
| 20260504030503 | 71 | 88 | 1.0 | 4.0 | 0.01 | 0.13 | 0.12 | 81 | 1015.4 |
| 20260504030003 | 71 | 88 | 1.0 | 5.0 | 0.01 | 0.13 | 0.12 | 81 | 1015.3 |
| 20260504025503 | 71 | 92 | 1.0 | 5.0 | 0.01 | 0.13 | 0.12 | 81 | 1015.4 |
| 20260504025002 | 71 | 101 | 1.0 | 4.0 | 0.01 | 0.13 | 0.12 | 81 | 1015.4 |
| 20260504024502 | 71 | 125 | 1.0 | 3.0 | 0.01 | 0.13 | 0.12 | 81 | 1015.4 |
| 20260504024002 | 71 | 129 | 1.0 | 6.0 | 0.01 | 0.13 | 0.12 | 81 | 1015.4 |
| 20260504023502 | 71 | 116 | 1.0 | 6.0 | 0.01 | 0.14 | 0.12 | 80 | 1015.3 |
| 20260504023002 | 71 | 109 | 1.0 | 4.0 | 0.00 | 0.13 | 0.11 | 80 | 1015.3 |
| 20260504022502 | 71 | 105 | 1.0 | 4.0 | 0.00 | 0.13 | 0.11 | 81 | 1015.2 |